Time,TemperatureF,DewpointF,PressureIn,WindDirection,WindDirectionDegrees,WindSpeedMPH,WindSpeedGustMPH,Humidity,HourlyPrecipIn,Conditions,Clouds,dailyrainin,SoftwareType,DateUTC
2013-03-04 00:00:00,63.4,25.6,27.30,East,90,1.3,2.5,24,0.00,,,0.00,WUHU216HW,2013-03-04 07:00:00,
2013-03-04 00:05:00,63.4,24.6,27.30,SE,135,1.1,1.8,23,0.00,,,0.00,WUHU216HW,2013-03-04 07:05:00,
2013-03-04 00:10:00,63.4,24.6,27.30,ESE,113,0.2,1.8,23,0.00,,,0.00,WUHU216HW,2013-03-04 07:10:00,
2013-03-04 00:15:00,63.5,24.8,27.30,ESE,113,0.9,1.1,23,0.00,,,0.00,WUHU216HW,2013-03-04 07:15:00,
2013-03-04 00:20:00,63.4,24.6,27.30,South,180,0.0,1.1,23,0.00,,,0.00,WUHU216HW,2013-03-04 07:20:00,
2013-03-04 00:25:00,63.4,24.6,27.30,East,90,0.4,1.1,23,0.00,,,0.00,WUHU216HW,2013-03-04 07:25:00,
2013-03-04 00:30:00,63.0,24.3,27.30,East,90,0.0,1.1,23,0.00,,,0.00,WUHU216HW,2013-03-04 07:30:00,
2013-03-04 00:35:00,63.0,24.3,27.30,ENE,68,0.0,0.4,23,0.00,,,0.00,WUHU216HW,2013-03-04 07:35:00,
2013-03-04 00:40:00,62.8,25.1,27.30,ENE,68,0.0,0.0,24,0.00,,,0.00,WUHU216HW,2013-03-04 07:40:00,
2013-03-04 00:45:00,62.6,24.9,27.29,ENE,68,0.0,0.0,24,0.00,,,0.00,WUHU216HW,2013-03-04 07:45:00,
2013-03-04 00:50:00,62.3,24.7,27.29,ENE,68,0.0,0.0,24,0.00,,,0.00,WUHU216HW,2013-03-04 07:50:00,
2013-03-04 00:55:00,62.3,24.7,27.29,ENE,68,0.0,0.0,24,0.00,,,0.00,WUHU216HW,2013-03-04 07:55:00,
2013-03-04 01:00:00,62.1,25.5,27.29,ENE,68,0.0,0.0,25,0.00,,,0.00,WUHU216HW,2013-03-04 08:00:00,
2013-03-04 01:05:00,62.1,24.5,27.29,ESE,113,0.2,0.4,24,0.00,,,0.00,WUHU216HW,2013-03-04 08:05:00,
2013-03-04 01:10:00,62.3,24.7,27.29,ESE,113,0.2,0.4,24,0.00,,,0.00,WUHU216HW,2013-03-04 08:10:00,
2013-03-04 01:15:00,62.3,24.7,27.29,ESE,113,0.0,0.7,24,0.00,,,0.00,WUHU216HW,2013-03-04 08:15:00,
2013-03-04 01:20:00,62.3,24.7,27.29,ESE,113,0.0,0.7,24,0.00,,,0.00,WUHU216HW,2013-03-04 08:20:00,
2013-03-04 01:25:00,62.3,24.7,27.29,ENE,68,0.4,0.4,24,0.00,,,0.00,WUHU216HW,2013-03-04 08:25:00,
2013-03-04 01:30:00,62.3,24.7,27.29,ENE,68,1.1,1.3,24,0.00,,,0.00,WUHU216HW,2013-03-04 08:30:00,
2013-03-04 01:35:00,62.3,24.7,27.29,East,90,0.4,1.3,24,0.00,,,0.00,WUHU216HW,2013-03-04 08:35:00,
2013-03-04 01:40:00,62.3,24.7,27.29,East,90,0.4,1.1,24,0.00,,,0.00,WUHU216HW,2013-03-04 08:40:00,
2013-03-04 01:45:00,62.3,24.7,27.29,East,90,0.0,0.9,24,0.00,,,0.00,WUHU216HW,2013-03-04 08:45:00,
2013-03-04 01:50:00,62.3,24.7,27.29,ENE,68,0.4,0.9,24,0.00,,,0.00,WUHU216HW,2013-03-04 08:50:00,
2013-03-04 01:55:00,62.1,24.5,27.29,ENE,68,0.2,1.3,24,0.00,,,0.00,WUHU216HW,2013-03-04 08:55:00,
2013-03-04 02:00:00,61.9,24.3,27.29,ENE,68,0.0,1.3,24,0.00,,,0.00,WUHU216HW,2013-03-04 09:00:00,
2013-03-04 02:05:00,61.9,23.4,27.29,NE,45,0.0,0.2,23,0.00,,,0.00,WUHU216HW,2013-03-04 09:05:00,
2013-03-04 02:10:00,61.9,23.4,27.29,NE,45,0.0,0.0,23,0.00,,,0.00,WUHU216HW,2013-03-04 09:10:00,
2013-03-04 02:15:00,61.7,24.2,27.29,NE,45,0.7,0.7,24,0.00,,,0.00,WUHU216HW,2013-03-04 09:15:00,
2013-03-04 02:20:00,61.6,24.0,27.28,ENE,68,0.7,1.1,24,0.00,,,0.00,WUHU216HW,2013-03-04 09:20:00,
2013-03-04 02:25:00,61.6,24.0,27.28,East,90,0.0,1.1,24,0.00,,,0.00,WUHU216HW,2013-03-04 09:25:00,
2013-03-04 02:30:00,61.7,23.2,27.28,ESE,113,0.0,1.8,23,0.00,,,0.00,WUHU216HW,2013-03-04 09:30:00,
2013-03-04 02:35:00,61.9,24.3,27.28,East,90,0.4,1.8,24,0.00,,,0.00,WUHU216HW,2013-03-04 09:35:00,
2013-03-04 02:40:00,61.9,24.3,27.28,ENE,68,0.2,1.3,24,0.00,,,0.00,WUHU216HW,2013-03-04 09:40:00,
2013-03-04 02:45:00,61.7,24.2,27.28,East,90,0.0,1.3,24,0.00,,,0.00,WUHU216HW,2013-03-04 09:45:00,
2013-03-04 02:50:00,62.1,25.5,27.27,ESE,113,0.4,1.1,25,0.00,,,0.00,WUHU216HW,2013-03-04 09:50:00,
2013-03-04 02:55:00,62.3,25.7,27.27,ESE,113,1.3,1.3,25,0.00,,,0.00,WUHU216HW,2013-03-04 09:55:00,
2013-03-04 03:00:00,62.6,24.9,27.27,SE,135,0.9,1.8,24,0.00,,,0.00,WUHU216HW,2013-03-04 10:00:00,
2013-03-04 03:05:00,63.2,24.4,27.27,SSE,158,2.9,2.9,23,0.00,,,0.00,WUHU216HW,2013-03-04 10:05:00,
2013-03-04 03:10:00,63.7,23.9,27.27,SE,135,2.7,3.4,22,0.00,,,0.00,WUHU216HW,2013-03-04 10:10:00,
2013-03-04 03:15:00,64.4,23.5,27.27,SE,135,1.8,3.8,21,0.00,,,0.00,WUHU216HW,2013-03-04 10:15:00,
2013-03-04 03:20:00,64.8,23.8,27.27,ESE,113,1.8,3.8,21,0.00,,,0.00,WUHU216HW,2013-03-04 10:20:00,
2013-03-04 03:25:00,65.0,24.0,27.27,ESE,113,0.9,3.6,21,0.00,,,0.00,WUHU216HW,2013-03-04 10:25:00,
2013-03-04 03:30:00,65.0,23.0,27.26,South,180,1.6,3.1,20,0.00,,,0.00,WUHU216HW,2013-03-04 10:30:00,
2013-03-04 03:35:00,65.2,23.0,27.26,ESE,113,0.9,3.1,20,0.00,,,0.00,WUHU216HW,2013-03-04 10:35:00,
2013-03-04 03:40:00,65.2,21.5,27.26,SE,135,1.3,2.9,19,0.00,,,0.00,WUHU216HW,2013-03-04 10:40:00,
2013-03-04 03:45:00,65.2,21.5,27.27,SE,135,0.2,2.9,19,0.00,,,0.00,WUHU216HW,2013-03-04 10:45:00,
2013-03-04 03:50:00,65.2,21.5,27.26,SE,135,0.9,1.6,19,0.00,,,0.00,WUHU216HW,2013-03-04 10:50:00,
2013-03-04 03:55:00,65.2,21.5,27.26,ESE,113,0.7,1.6,19,0.00,,,0.00,WUHU216HW,2013-03-04 10:55:00,
2013-03-04 04:00:00,65.0,21.3,27.26,SE,135,0.7,1.6,19,0.00,,,0.00,WUHU216HW,2013-03-04 11:00:00,
2013-03-04 04:05:00,64.8,22.8,27.26,SSE,158,0.0,1.6,20,0.00,,,0.00,WUHU216HW,2013-03-04 11:05:00,
2013-03-04 04:10:00,64.8,22.8,27.26,South,180,0.4,1.1,20,0.00,,,0.00,WUHU216HW,2013-03-04 11:10:00,
2013-03-04 04:15:00,64.6,22.7,27.26,South,180,0.4,0.7,20,0.00,,,0.00,WUHU216HW,2013-03-04 11:15:00,
2013-03-04 04:20:00,64.6,21.1,27.26,SE,135,0.7,1.1,19,0.00,,,0.00,WUHU216HW,2013-03-04 11:20:00,
2013-03-04 04:25:00,64.6,21.1,27.26,SE,135,0.2,1.8,19,0.00,,,0.00,WUHU216HW,2013-03-04 11:25:00,
2013-03-04 04:30:00,64.4,20.9,27.26,ESE,113,0.4,1.8,19,0.00,,,0.00,WUHU216HW,2013-03-04 11:30:00,
2013-03-04 04:35:00,64.4,20.9,27.26,SSE,158,0.4,1.1,19,0.00,,,0.00,WUHU216HW,2013-03-04 11:35:00,
2013-03-04 04:40:00,64.3,20.8,27.25,SE,135,0.2,1.8,19,0.00,,,0.00,WUHU216HW,2013-03-04 11:40:00,
2013-03-04 04:45:00,64.3,19.2,27.26,SE,135,1.8,2.9,18,0.00,,,0.00,WUHU216HW,2013-03-04 11:45:00,
2013-03-04 04:50:00,64.4,17.7,27.26,East,90,1.8,3.4,17,0.00,,,0.00,WUHU216HW,2013-03-04 11:50:00,
2013-03-04 04:55:00,64.8,16.5,27.25,SSE,158,2.0,4.3,16,0.00,,,0.00,WUHU216HW,2013-03-04 11:55:00,
2013-03-04 05:00:00,65.0,16.6,27.26,East,90,2.5,4.3,16,0.00,,,0.00,WUHU216HW,2013-03-04 12:00:00,
2013-03-04 05:05:00,65.0,16.6,27.26,SE,135,1.8,3.8,16,0.00,,,0.00,WUHU216HW,2013-03-04 12:05:00,
2013-03-04 05:10:00,65.0,16.6,27.26,SE,135,3.4,4.0,16,0.00,,,0.00,WUHU216HW,2013-03-04 12:10:00,
2013-03-04 05:15:00,64.8,16.5,27.26,East,90,3.8,4.3,16,0.00,,,0.00,WUHU216HW,2013-03-04 12:15:00,
2013-03-04 05:20:00,64.8,16.5,27.27,South,180,1.8,4.3,16,0.00,,,0.00,WUHU216HW,2013-03-04 12:20:00,
2013-03-04 05:25:00,64.6,16.3,27.27,SE,135,1.8,2.9,16,0.00,,,0.00,WUHU216HW,2013-03-04 12:25:00,
2013-03-04 05:30:00,64.4,16.2,27.27,WSW,248,0.9,2.5,16,0.00,,,0.00,WUHU216HW,2013-03-04 12:30:00,
2013-03-04 05:35:00,63.9,17.4,27.27,NW,315,1.1,2.0,17,0.00,,,0.00,WUHU216HW,2013-03-04 12:35:00,
2013-03-04 05:40:00,63.2,18.4,27.27,South,180,0.0,1.8,18,0.00,,,0.00,WUHU216HW,2013-03-04 12:40:00,
2013-03-04 05:45:00,62.8,18.1,27.28,SW,225,0.7,1.8,18,0.00,,,0.00,WUHU216HW,2013-03-04 12:45:00,
2013-03-04 05:50:00,62.8,16.5,27.28,SE,135,0.9,1.8,17,0.00,,,0.00,WUHU216HW,2013-03-04 12:50:00,
2013-03-04 05:55:00,63.0,16.7,27.27,ESE,113,1.8,2.7,17,0.00,,,0.00,WUHU216HW,2013-03-04 12:55:00,
2013-03-04 06:00:00,63.0,16.7,27.27,South,180,1.8,2.7,17,0.00,,,0.00,WUHU216HW,2013-03-04 13:00:00,
2013-03-04 06:05:00,63.0,16.7,27.27,SE,135,0.2,2.5,17,0.00,,,0.00,WUHU216HW,2013-03-04 13:05:00,
2013-03-04 06:10:00,62.8,16.5,27.28,SE,135,0.0,1.8,17,0.00,,,0.00,WUHU216HW,2013-03-04 13:10:00,
2013-03-04 06:15:00,62.3,16.1,27.28,SSW,203,0.0,0.7,17,0.00,,,0.00,WUHU216HW,2013-03-04 13:15:00,
2013-03-04 06:20:00,62.1,17.5,27.28,SSW,203,0.0,0.7,18,0.00,,,0.00,WUHU216HW,2013-03-04 13:20:00,
2013-03-04 06:25:00,61.7,17.2,27.28,SSW,203,0.0,0.4,18,0.00,,,0.00,WUHU216HW,2013-03-04 13:25:00,
2013-03-04 06:30:00,61.4,16.9,27.28,SSW,203,0.0,0.0,18,0.00,,,0.00,WUHU216HW,2013-03-04 13:30:00,
2013-03-04 06:35:00,61.2,16.7,27.28,South,180,0.4,0.7,18,0.00,,,0.00,WUHU216HW,2013-03-04 13:35:00,
2013-03-04 06:40:00,61.2,16.7,27.29,SW,225,0.0,0.7,18,0.00,,,0.00,WUHU216HW,2013-03-04 13:40:00,
2013-03-04 06:45:00,61.0,16.7,27.29,SSW,203,0.7,0.9,18,0.00,,,0.00,WUHU216HW,2013-03-04 13:45:00,
2013-03-04 06:50:00,61.0,16.7,27.28,SSW,203,0.4,0.9,18,0.00,,,0.00,WUHU216HW,2013-03-04 13:50:00,
2013-03-04 06:55:00,61.0,16.7,27.28,SE,135,0.0,0.7,18,0.00,,,0.00,WUHU216HW,2013-03-04 13:55:00,
2013-03-04 07:00:00,60.8,16.5,27.29,SE,135,0.0,0.4,18,0.00,,,0.00,WUHU216HW,2013-03-04 14:00:00,
2013-03-04 07:05:00,60.7,17.9,27.29,SW,225,0.4,0.7,19,0.00,,,0.00,WUHU216HW,2013-03-04 14:05:00,
2013-03-04 07:10:00,60.5,17.7,27.29,WSW,248,0.4,1.1,19,0.00,,,0.00,WUHU216HW,2013-03-04 14:10:00,
2013-03-04 07:15:00,60.5,19.3,27.29,West,270,0.0,1.1,20,0.00,,,0.00,WUHU216HW,2013-03-04 14:15:00,
2013-03-04 07:20:00,60.5,20.3,27.30,West,270,0.2,1.1,21,0.00,,,0.00,WUHU216HW,2013-03-04 14:20:00,
2013-03-04 07:25:00,60.1,19.9,27.30,West,270,0.4,1.1,21,0.00,,,0.00,WUHU216HW,2013-03-04 14:25:00,
2013-03-04 07:30:00,60.1,19.9,27.30,West,270,0.4,1.1,21,0.00,,,0.00,WUHU216HW,2013-03-04 14:30:00,
2013-03-04 07:35:00,60.1,19.9,27.30,WSW,248,0.4,1.6,21,0.00,,,0.00,WUHU216HW,2013-03-04 14:35:00,
2013-03-04 07:40:00,60.3,20.1,27.30,West,270,1.1,1.8,21,0.00,,,0.00,WUHU216HW,2013-03-04 14:40:00,
2013-03-04 07:45:00,60.3,20.1,27.30,SW,225,0.4,1.8,21,0.00,,,0.00,WUHU216HW,2013-03-04 14:45:00,
2013-03-04 07:50:00,60.5,20.3,27.30,West,270,0.2,2.0,21,0.00,,,0.00,WUHU216HW,2013-03-04 14:50:00,
2013-03-04 07:55:00,60.5,20.3,27.31,NW,315,0.7,2.0,21,0.00,,,0.00,WUHU216HW,2013-03-04 14:55:00,
2013-03-04 08:00:00,60.7,20.4,27.31,NNW,338,0.9,1.8,21,0.00,,,0.00,WUHU216HW,2013-03-04 15:00:00,
2013-03-04 08:05:00,60.7,20.4,27.31,NW,315,0.2,1.8,21,0.00,,,0.00,WUHU216HW,2013-03-04 15:05:00,
2013-03-04 08:10:00,60.5,20.3,27.31,NW,315,0.0,1.8,21,0.00,,,0.00,WUHU216HW,2013-03-04 15:10:00,
2013-03-04 08:15:00,60.1,19.9,27.32,WNW,293,0.0,1.3,21,0.00,,,0.00,WUHU216HW,2013-03-04 15:15:00,
2013-03-04 08:20:00,60.1,21.9,27.32,NW,315,0.7,1.3,23,0.00,,,0.00,WUHU216HW,2013-03-04 15:20:00,
2013-03-04 08:25:00,60.8,20.6,27.32,SSE,158,1.8,2.9,21,0.00,,,0.00,WUHU216HW,2013-03-04 15:25:00,
2013-03-04 08:30:00,61.7,20.3,27.32,SW,225,1.1,3.4,20,0.00,,,0.00,WUHU216HW,2013-03-04 15:30:00,
2013-03-04 08:35:00,62.6,19.5,27.32,NW,315,2.2,4.0,19,0.00,,,0.00,WUHU216HW,2013-03-04 15:35:00,
2013-03-04 08:40:00,63.0,19.8,27.32,NNW,338,2.7,4.0,19,0.00,,,0.00,WUHU216HW,2013-03-04 15:40:00,
2013-03-04 08:45:00,63.2,19.9,27.32,ENE,68,2.9,5.4,19,0.00,,,0.00,WUHU216HW,2013-03-04 15:45:00,
2013-03-04 08:50:00,63.4,20.1,27.32,SW,225,3.6,5.4,19,0.00,,,0.00,WUHU216HW,2013-03-04 15:50:00,
2013-03-04 08:55:00,63.7,20.3,27.32,WSW,248,4.3,6.3,19,0.00,,,0.00,WUHU216HW,2013-03-04 15:55:00,
2013-03-04 09:00:00,63.9,18.9,27.32,WSW,248,3.6,7.2,18,0.00,,,0.00,WUHU216HW,2013-03-04 16:00:00,
2013-03-04 09:05:00,64.1,20.6,27.32,SE,135,4.9,7.2,19,0.00,,,0.00,WUHU216HW,2013-03-04 16:05:00,
2013-03-04 09:10:00,64.1,20.6,27.32,SE,135,4.0,6.3,19,0.00,,,0.00,WUHU216HW,2013-03-04 16:10:00,
2013-03-04 09:15:00,64.3,20.8,27.32,ENE,68,1.3,6.3,19,0.00,,,0.00,WUHU216HW,2013-03-04 16:15:00,
2013-03-04 09:20:00,64.4,20.9,27.32,SSW,203,5.4,5.4,19,0.00,,,0.00,WUHU216HW,2013-03-04 16:20:00,
2013-03-04 09:25:00,64.6,21.1,27.32,SSE,158,2.7,6.3,19,0.00,,,0.00,WUHU216HW,2013-03-04 16:25:00,
2013-03-04 09:30:00,64.8,21.3,27.32,ENE,68,4.5,6.3,19,0.00,,,0.00,WUHU216HW,2013-03-04 16:30:00,
2013-03-04 09:35:00,64.8,23.8,27.32,NNW,338,3.4,6.3,21,0.00,,,0.00,WUHU216HW,2013-03-04 16:35:00,
2013-03-04 09:40:00,64.8,24.8,27.32,SE,135,3.6,6.7,22,0.00,,,0.00,WUHU216HW,2013-03-04 16:40:00,
2013-03-04 09:45:00,64.8,26.7,27.32,NW,315,4.9,7.4,24,0.00,,,0.00,WUHU216HW,2013-03-04 16:45:00,
2013-03-04 09:50:00,65.2,27.1,27.32,NNW,338,6.3,7.4,24,0.00,,,0.00,WUHU216HW,2013-03-04 16:50:00,
2013-03-04 09:55:00,65.2,29.1,27.32,WNW,293,6.0,6.9,26,0.00,,,0.00,WUHU216HW,2013-03-04 16:55:00,
2013-03-04 10:00:00,65.5,28.4,27.32,WSW,248,5.4,6.9,25,0.00,,,0.00,WUHU216HW,2013-03-04 17:00:00,
2013-03-04 10:05:00,65.7,28.5,27.32,NE,45,4.0,7.6,25,0.00,,,0.00,WUHU216HW,2013-03-04 17:05:00,
2013-03-04 10:10:00,65.7,28.5,27.33,NW,315,4.0,7.6,25,0.00,,,0.00,WUHU216HW,2013-03-04 17:10:00,
2013-03-04 10:15:00,65.9,28.7,27.33,North,0,3.8,6.9,25,0.00,,,0.00,WUHU216HW,2013-03-04 17:15:00,
2013-03-04 10:20:00,66.1,29.8,27.33,West,270,4.9,6.9,26,0.00,,,0.00,WUHU216HW,2013-03-04 17:20:00,
2013-03-04 10:25:00,66.1,29.8,27.33,NW,315,4.5,6.3,26,0.00,,,0.00,WUHU216HW,2013-03-04 17:25:00,
2013-03-04 10:30:00,66.2,30.0,27.33,WSW,248,2.7,6.3,26,0.00,,,0.00,WUHU216HW,2013-03-04 17:30:00,
2013-03-04 10:35:00,66.6,30.3,27.33,West,270,6.0,6.0,26,0.00,,,0.00,WUHU216HW,2013-03-04 17:35:00,
2013-03-04 10:40:00,66.6,30.3,27.33,WNW,293,4.3,6.5,26,0.00,,,0.00,WUHU216HW,2013-03-04 17:40:00,
2013-03-04 10:45:00,66.8,31.4,27.33,NW,315,2.2,6.5,27,0.00,,,0.00,WUHU216HW,2013-03-04 17:45:00,
2013-03-04 10:50:00,67.0,29.6,27.33,SSW,203,7.2,7.2,25,0.00,,,0.00,WUHU216HW,2013-03-04 17:50:00,
2013-03-04 10:55:00,67.3,29.9,27.33,West,270,7.2,7.2,25,0.00,,,0.00,WUHU216HW,2013-03-04 17:55:00,
2013-03-04 11:00:00,67.7,30.3,27.33,WSW,248,4.7,7.2,25,0.00,,,0.00,WUHU216HW,2013-03-04 18:00:00,
2013-03-04 11:05:00,69.3,30.6,27.33,WSW,248,3.6,7.2,24,0.00,,,0.00,WUHU216HW,2013-03-04 18:05:00,
2013-03-04 11:10:00,70.4,30.5,27.33,West,270,3.4,6.5,23,0.00,,,0.00,WUHU216HW,2013-03-04 18:10:00,
2013-03-04 11:15:00,71.5,31.4,27.33,West,270,3.4,6.5,23,0.00,,,0.00,WUHU216HW,2013-03-04 18:15:00,
2013-03-04 11:20:00,72.2,31.0,27.33,NNE,23,2.2,6.3,22,0.00,,,0.00,WUHU216HW,2013-03-04 18:20:00,
2013-03-04 11:25:00,72.7,31.4,27.33,West,270,4.0,6.0,22,0.00,,,0.00,WUHU216HW,2013-03-04 18:25:00,
2013-03-04 11:29:00,72.4,30.2,27.33,NW,315,2.7,5.1,21,0.00,,,0.00,WUHU216HW,2013-03-04 18:29:00,
2013-03-04 11:30:00,72.5,30.2,27.33,WSW,248,2.9,5.1,21,0.00,,,0.00,WUHU216HW,2013-03-04 18:30:00,
2013-03-04 11:35:00,72.5,31.3,27.33,SW,225,2.7,6.0,22,0.00,,,0.00,WUHU216HW,2013-03-04 18:35:00,
2013-03-04 11:40:00,73.1,31.8,27.33,WNW,293,7.4,7.4,22,0.00,,,0.00,WUHU216HW,2013-03-04 18:40:00,
2013-03-04 11:45:00,73.4,32.0,27.33,SSW,203,3.8,7.4,22,0.00,,,0.00,WUHU216HW,2013-03-04 18:45:00,
2013-03-04 11:50:00,74.5,32.0,27.32,ESE,113,1.8,7.6,21,0.00,,,0.00,WUHU216HW,2013-03-04 18:50:00,
2013-03-04 11:55:00,74.5,32.0,27.32,NW,315,5.6,7.6,21,0.00,,,0.00,WUHU216HW,2013-03-04 18:55:00,
2013-03-04 12:00:00,73.8,31.3,27.32,WNW,293,3.8,6.3,21,0.00,,,0.00,WUHU216HW,2013-03-04 19:00:00,
2013-03-04 12:05:00,73.6,31.2,27.32,WSW,248,3.4,6.3,21,0.00,,,0.00,WUHU216HW,2013-03-04 19:05:00,
2013-03-04 12:07:00,67.8,40.4,27.43,North,0,0.0,12.5,37,0.00,,,0.00,WUHU216HW,2013-03-04 19:07:00,
2013-03-04 12:08:00,54.4,29.2,27.43,NNE,23,0.0,12.5,38,0.00,,,0.00,WUHU216HW,2013-03-04 19:08:00,
2013-03-04 12:09:00,54.4,29.9,27.43,NNE,23,0.0,12.5,39,0.00,,,0.00,WUHU216HW,2013-03-04 19:09:00,
2013-03-04 12:10:00,73.3,32.0,27.32,West,270,3.4,5.6,22,0.00,,,0.00,WUHU216HW,2013-03-04 19:10:00,
2013-03-04 12:15:00,73.3,30.9,27.32,ENE,68,5.6,7.2,21,0.00,,,0.00,WUHU216HW,2013-03-04 19:15:00,
2013-03-04 12:20:00,73.3,32.0,27.32,SSW,203,3.6,7.2,22,0.00,,,0.00,WUHU216HW,2013-03-04 19:20:00,
2013-03-04 12:25:00,72.9,31.6,27.32,WSW,248,5.4,8.1,22,0.00,,,0.00,WUHU216HW,2013-03-04 19:25:00,
2013-03-04 12:30:00,72.5,31.3,27.31,WNW,293,3.4,8.1,22,0.00,,,0.00,WUHU216HW,2013-03-04 19:30:00,
2013-03-04 12:35:00,71.6,31.5,27.31,West,270,2.9,6.3,23,0.00,,,0.00,WUHU216HW,2013-03-04 19:35:00,
2013-03-04 12:40:00,71.6,31.5,27.31,South,180,2.5,6.3,23,0.00,,,0.00,WUHU216HW,2013-03-04 19:40:00,
2013-03-04 12:45:00,72.0,31.9,27.31,NNE,23,4.5,7.8,23,0.00,,,0.00,WUHU216HW,2013-03-04 19:45:00,
2013-03-04 12:50:00,71.6,31.5,27.31,West,270,5.4,7.8,23,0.00,,,0.00,WUHU216HW,2013-03-04 19:50:00,
2013-03-04 12:55:00,71.8,31.7,27.30,SW,225,5.4,6.9,23,0.00,,,0.00,WUHU216HW,2013-03-04 19:55:00,
2013-03-04 13:00:00,72.2,32.0,27.30,SSW,203,4.7,6.7,23,0.00,,,0.00,WUHU216HW,2013-03-04 20:00:00,
2013-03-04 13:05:00,72.5,32.3,27.30,NW,315,6.9,7.4,23,0.00,,,0.00,WUHU216HW,2013-03-04 20:05:00,
2013-03-04 13:10:00,72.9,32.6,27.30,North,0,4.9,7.8,23,0.00,,,0.00,WUHU216HW,2013-03-04 20:10:00,
2013-03-04 13:15:00,72.5,31.3,27.30,SW,225,4.3,7.8,22,0.00,,,0.00,WUHU216HW,2013-03-04 20:15:00,
2013-03-04 13:20:00,72.0,31.9,27.30,NNW,338,7.6,7.6,23,0.00,,,0.00,WUHU216HW,2013-03-04 20:20:00,
2013-03-04 13:25:00,72.0,31.9,27.30,WSW,248,5.8,10.1,23,0.00,,,0.00,WUHU216HW,2013-03-04 20:25:00,
2013-03-04 13:30:00,72.4,32.1,27.30,SE,135,4.7,10.1,23,0.00,,,0.00,WUHU216HW,2013-03-04 20:30:00,
2013-03-04 13:35:00,72.4,32.1,27.30,NNW,338,6.9,8.5,23,0.00,,,0.00,WUHU216HW,2013-03-04 20:35:00,
2013-03-04 13:40:00,72.2,32.0,27.30,SW,225,6.3,8.5,23,0.00,,,0.00,WUHU216HW,2013-03-04 20:40:00,
2013-03-04 13:45:00,72.4,32.1,27.30,WSW,248,6.9,8.7,23,0.00,,,0.00,WUHU216HW,2013-03-04 20:45:00,
2013-03-04 13:50:00,72.4,32.1,27.30,SW,225,4.0,8.7,23,0.00,,,0.00,WUHU216HW,2013-03-04 20:50:00,
2013-03-04 13:55:00,72.4,32.1,27.30,NE,45,5.4,11.4,23,0.00,,,0.00,WUHU216HW,2013-03-04 20:55:00,
2013-03-04 14:00:00,72.5,32.3,27.30,WSW,248,4.3,11.4,23,0.00,,,0.00,WUHU216HW,2013-03-04 21:00:00,
2013-03-04 14:05:00,72.5,32.3,27.30,SW,225,7.4,8.5,23,0.00,,,0.00,WUHU216HW,2013-03-04 21:05:00,
2013-03-04 14:10:00,72.7,32.5,27.29,SSW,203,6.3,8.5,23,0.00,,,0.00,WUHU216HW,2013-03-04 21:10:00,
2013-03-04 14:15:00,72.5,31.3,27.29,NNW,338,8.7,12.5,22,0.00,,,0.00,WUHU216HW,2013-03-04 21:15:00,
2013-03-04 14:20:00,72.5,31.3,27.29,WSW,248,8.7,12.5,22,0.00,,,0.00,WUHU216HW,2013-03-04 21:20:00,
2013-03-04 14:25:00,72.2,31.0,27.29,SSW,203,4.7,9.8,22,0.00,,,0.00,WUHU216HW,2013-03-04 21:25:00,
2013-03-04 14:30:00,72.5,31.3,27.30,West,270,6.9,9.8,22,0.00,,,0.00,WUHU216HW,2013-03-04 21:30:00,
2013-03-04 14:35:00,72.5,31.3,27.30,SW,225,4.3,9.4,22,0.00,,,0.00,WUHU216HW,2013-03-04 21:35:00,
2013-03-04 14:40:00,72.7,31.4,27.30,SW,225,7.6,7.8,22,0.00,,,0.00,WUHU216HW,2013-03-04 21:40:00,
2013-03-04 14:45:00,72.4,31.2,27.30,SSW,203,5.4,10.1,22,0.00,,,0.00,WUHU216HW,2013-03-04 21:45:00,
2013-03-04 14:50:00,72.7,31.4,27.30,WSW,248,3.8,10.1,22,0.00,,,0.00,WUHU216HW,2013-03-04 21:50:00,
2013-03-04 14:55:00,72.7,31.4,27.30,SW,225,4.7,8.5,22,0.00,,,0.00,WUHU216HW,2013-03-04 21:55:00,
2013-03-04 15:00:00,72.7,30.4,27.30,WNW,293,2.5,8.1,21,0.00,,,0.00,WUHU216HW,2013-03-04 22:00:00,
2013-03-04 15:05:00,72.7,30.4,27.30,WSW,248,6.3,8.1,21,0.00,,,0.00,WUHU216HW,2013-03-04 22:05:00,
2013-03-04 15:10:00,72.5,30.2,27.30,WSW,248,2.5,7.6,21,0.00,,,0.00,WUHU216HW,2013-03-04 22:10:00,
2013-03-04 15:15:00,72.5,30.2,27.30,WSW,248,4.7,6.9,21,0.00,,,0.00,WUHU216HW,2013-03-04 22:15:00,
2013-03-04 15:20:00,72.5,30.2,27.31,WSW,248,5.8,7.4,21,0.00,,,0.00,WUHU216HW,2013-03-04 22:20:00,
2013-03-04 15:25:00,72.4,30.2,27.31,SW,225,3.8,7.8,21,0.00,,,0.00,WUHU216HW,2013-03-04 22:25:00,
2013-03-04 15:30:00,72.2,30.0,27.31,West,270,6.9,7.8,21,0.00,,,0.00,WUHU216HW,2013-03-04 22:30:00,
2013-03-04 15:35:00,72.4,30.2,27.31,WSW,248,5.8,8.3,21,0.00,,,0.00,WUHU216HW,2013-03-04 22:35:00,
2013-03-04 15:40:00,72.2,31.0,27.31,WSW,248,5.1,8.3,22,0.00,,,0.00,WUHU216HW,2013-03-04 22:40:00,
2013-03-04 15:45:00,72.4,30.2,27.31,WSW,248,8.3,8.3,21,0.00,,,0.00,WUHU216HW,2013-03-04 22:45:00,
2013-03-04 15:50:00,72.4,30.2,27.31,West,270,5.8,8.3,21,0.00,,,0.00,WUHU216HW,2013-03-04 22:50:00,
2013-03-04 15:55:00,72.2,30.0,27.31,WNW,293,7.4,9.4,21,0.00,,,0.00,WUHU216HW,2013-03-04 22:55:00,
2013-03-04 16:00:00,72.2,30.0,27.32,West,270,5.4,9.8,21,0.00,,,0.00,WUHU216HW,2013-03-04 23:00:00,
2013-03-04 16:05:00,72.2,27.3,27.31,WSW,248,4.5,9.8,19,0.00,,,0.00,WUHU216HW,2013-03-04 23:05:00,
2013-03-04 16:10:00,72.4,27.5,27.31,SW,225,5.4,8.5,19,0.00,,,0.00,WUHU216HW,2013-03-04 23:10:00,
2013-03-04 16:15:00,72.2,27.3,27.32,North,0,5.4,8.5,19,0.00,,,0.00,WUHU216HW,2013-03-04 23:15:00,
2013-03-04 16:20:00,72.2,27.3,27.31,SSW,203,4.0,6.9,19,0.00,,,0.00,WUHU216HW,2013-03-04 23:20:00,
2013-03-04 16:25:00,72.4,27.5,27.31,North,0,2.7,6.9,19,0.00,,,0.00,WUHU216HW,2013-03-04 23:25:00,
2013-03-04 16:30:00,72.2,24.0,27.32,NW,315,2.7,6.9,17,0.00,,,0.00,WUHU216HW,2013-03-04 23:30:00,
2013-03-04 16:35:00,72.2,24.0,27.32,SW,225,2.9,6.9,17,0.00,,,0.00,WUHU216HW,2013-03-04 23:35:00,
2013-03-04 16:40:00,72.2,25.7,27.32,WSW,248,3.4,6.5,18,0.00,,,0.00,WUHU216HW,2013-03-04 23:40:00,
2013-03-04 16:45:00,72.2,25.7,27.32,NW,315,5.1,6.9,18,0.00,,,0.00,WUHU216HW,2013-03-04 23:45:00,
2013-03-04 16:50:00,72.0,25.6,27.32,WSW,248,2.9,6.9,18,0.00,,,0.00,WUHU216HW,2013-03-04 23:50:00,
2013-03-04 16:55:00,71.6,25.2,27.33,NW,315,3.8,6.5,18,0.00,,,0.00,WUHU216HW,2013-03-04 23:55:00,
2013-03-04 17:00:00,71.8,25.4,27.33,SW,225,2.2,6.5,18,0.00,,,0.00,WUHU216HW,2013-03-05 00:00:00,
2013-03-04 17:05:00,71.6,25.2,27.33,South,180,2.5,5.1,18,0.00,,,0.00,WUHU216HW,2013-03-05 00:05:00,
2013-03-04 17:10:00,71.5,25.0,27.33,NNW,338,2.5,5.1,18,0.00,,,0.00,WUHU216HW,2013-03-05 00:10:00,
2013-03-04 17:15:00,71.6,26.8,27.33,WNW,293,6.5,6.5,19,0.00,,,0.00,WUHU216HW,2013-03-05 00:15:00,
2013-03-04 17:20:00,71.1,24.8,27.32,SW,225,3.8,6.5,18,0.00,,,0.00,WUHU216HW,2013-03-05 00:20:00,
2013-03-04 17:25:00,70.6,25.9,27.33,West,270,2.2,6.5,19,0.00,,,0.00,WUHU216HW,2013-03-05 00:25:00,
2013-03-04 17:30:00,70.2,25.7,27.33,NW,315,5.1,5.1,19,0.00,,,0.00,WUHU216HW,2013-03-05 00:30:00,
2013-03-04 17:35:00,70.2,25.7,27.33,WNW,293,2.9,7.6,19,0.00,,,0.00,WUHU216HW,2013-03-05 00:35:00,
2013-03-04 17:40:00,69.8,25.4,27.33,SW,225,1.6,7.6,19,0.00,,,0.00,WUHU216HW,2013-03-05 00:40:00,
2013-03-04 17:45:00,69.8,25.4,27.33,WSW,248,3.6,3.8,19,0.00,,,0.00,WUHU216HW,2013-03-05 00:45:00,
2013-03-04 17:50:00,69.5,25.1,27.33,WNW,293,1.8,5.4,19,0.00,,,0.00,WUHU216HW,2013-03-05 00:50:00,
2013-03-04 17:55:00,69.1,24.9,27.33,SSW,203,3.8,5.4,19,0.00,,,0.00,WUHU216HW,2013-03-05 00:55:00,
2013-03-04 18:00:00,68.9,26.3,27.33,WSW,248,2.0,4.7,20,0.00,,,0.00,WUHU216HW,2013-03-05 01:00:00,
2013-03-04 18:05:00,68.8,27.1,27.33,West,270,3.1,4.7,21,0.00,,,0.00,WUHU216HW,2013-03-05 01:05:00,
2013-03-04 18:10:00,68.2,26.7,27.33,West,270,2.0,4.7,21,0.00,,,0.00,WUHU216HW,2013-03-05 01:10:00,
2013-03-04 18:15:00,68.0,26.6,27.33,South,180,2.7,4.7,21,0.00,,,0.00,WUHU216HW,2013-03-05 01:15:00,
2013-03-04 18:20:00,67.7,26.2,27.34,NNW,338,1.3,3.6,21,0.00,,,0.00,WUHU216HW,2013-03-05 01:20:00,
2013-03-04 18:25:00,67.3,26.9,27.34,WNW,293,1.1,3.6,22,0.00,,,0.00,WUHU216HW,2013-03-05 01:25:00,
2013-03-04 18:30:00,67.0,26.6,27.34,NW,315,3.1,3.1,22,0.00,,,0.00,WUHU216HW,2013-03-05 01:30:00,
2013-03-04 18:35:00,66.6,27.3,27.34,NW,315,1.1,3.1,23,0.00,,,0.00,WUHU216HW,2013-03-05 01:35:00,
2013-03-04 18:40:00,66.4,30.2,27.35,WNW,293,0.7,3.1,26,0.00,,,0.00,WUHU216HW,2013-03-05 01:40:00,
2013-03-04 18:45:00,66.1,29.8,27.35,NNW,338,0.9,3.1,26,0.00,,,0.00,WUHU216HW,2013-03-05 01:45:00,
2013-03-04 18:50:00,65.7,31.5,27.36,NW,315,0.4,3.1,28,0.00,,,0.00,WUHU216HW,2013-03-05 01:50:00,
2013-03-04 18:55:00,65.3,31.2,27.35,WNW,293,0.7,1.8,28,0.00,,,0.00,WUHU216HW,2013-03-05 01:55:00,
2013-03-04 19:00:00,65.0,31.9,27.35,West,270,0.4,1.3,29,0.00,,,0.00,WUHU216HW,2013-03-05 02:00:00,
2013-03-04 19:05:00,64.4,31.4,27.35,WNW,293,0.9,1.8,29,0.00,,,0.00,WUHU216HW,2013-03-05 02:05:00,
2013-03-04 19:10:00,64.3,31.2,27.36,WNW,293,0.4,1.8,29,0.00,,,0.00,WUHU216HW,2013-03-05 02:10:00,
2013-03-04 19:15:00,63.9,30.0,27.36,NW,315,0.9,1.8,28,0.00,,,0.00,WUHU216HW,2013-03-05 02:15:00,
2013-03-04 19:20:00,63.7,30.8,27.37,NW,315,1.1,2.2,29,0.00,,,0.00,WUHU216HW,2013-03-05 02:20:00,
2013-03-04 19:25:00,63.5,30.6,27.37,West,270,0.9,3.1,29,0.00,,,0.00,WUHU216HW,2013-03-05 02:25:00,
2013-03-04 19:30:00,63.4,30.4,27.37,West,270,0.7,3.1,29,0.00,,,0.00,WUHU216HW,2013-03-05 02:30:00,
2013-03-04 19:35:00,63.0,30.2,27.38,NW,315,1.3,2.2,29,0.00,,,0.00,WUHU216HW,2013-03-05 02:35:00,
2013-03-04 19:40:00,62.6,29.8,27.38,West,270,0.7,1.8,29,0.00,,,0.00,WUHU216HW,2013-03-05 02:40:00,
2013-03-04 19:45:00,62.5,30.6,27.38,WSW,248,1.1,1.8,30,0.00,,,0.00,WUHU216HW,2013-03-05 02:45:00,
2013-03-04 19:50:00,62.3,31.1,27.38,NW,315,0.9,1.8,31,0.00,,,0.00,WUHU216HW,2013-03-05 02:50:00,
2013-03-04 19:55:00,61.9,30.2,27.38,WNW,293,0.2,1.8,30,0.00,,,0.00,WUHU216HW,2013-03-05 02:55:00,
2013-03-04 20:00:00,61.6,29.8,27.38,WNW,293,0.2,1.1,30,0.00,,,0.00,WUHU216HW,2013-03-05 03:00:00,
2013-03-04 20:05:00,61.4,29.6,27.39,NW,315,0.2,0.9,30,0.00,,,0.00,WUHU216HW,2013-03-05 03:05:00,
2013-03-04 20:10:00,60.8,29.9,27.39,West,270,0.0,1.1,31,0.00,,,0.00,WUHU216HW,2013-03-05 03:10:00,
2013-03-04 20:15:00,60.7,29.7,27.39,WNW,293,0.0,1.1,31,0.00,,,0.00,WUHU216HW,2013-03-05 03:15:00,
2013-03-04 20:20:00,60.5,28.9,27.39,WNW,293,0.0,0.9,30,0.00,,,0.00,WUHU216HW,2013-03-05 03:20:00,
2013-03-04 20:25:00,60.1,29.4,27.40,WNW,293,0.0,0.0,31,0.00,,,0.00,WUHU216HW,2013-03-05 03:25:00,
2013-03-04 20:30:00,59.8,29.0,27.40,WNW,293,0.0,0.0,31,0.00,,,0.00,WUHU216HW,2013-03-05 03:30:00,
2013-03-04 20:35:00,59.4,28.7,27.40,WNW,293,0.0,0.0,31,0.00,,,0.00,WUHU216HW,2013-03-05 03:35:00,
2013-03-04 20:40:00,59.0,28.5,27.40,WNW,293,0.0,0.0,31,0.00,,,0.00,WUHU216HW,2013-03-05 03:40:00,
2013-03-04 20:45:00,58.7,28.8,27.40,WNW,293,0.0,0.0,32,0.00,,,0.00,WUHU216HW,2013-03-05 03:45:00,
2013-03-04 20:50:00,58.3,28.4,27.40,NNE,23,0.0,0.7,32,0.00,,,0.00,WUHU216HW,2013-03-05 03:50:00,
2013-03-04 20:55:00,58.0,28.2,27.41,NNE,23,0.0,0.7,32,0.00,,,0.00,WUHU216HW,2013-03-05 03:55:00,
2013-03-04 21:00:00,57.8,28.0,27.41,NNE,23,0.0,0.0,32,0.00,,,0.00,WUHU216HW,2013-03-05 04:00:00,
2013-03-04 21:05:00,57.4,28.4,27.41,NNE,23,0.0,0.0,33,0.00,,,0.00,WUHU216HW,2013-03-05 04:05:00,
2013-03-04 21:10:00,57.2,28.2,27.41,NNE,23,0.0,0.0,33,0.00,,,0.00,WUHU216HW,2013-03-05 04:10:00,
2013-03-04 21:15:00,56.9,27.9,27.41,North,0,0.0,0.4,33,0.00,,,0.00,WUHU216HW,2013-03-05 04:15:00,
2013-03-04 21:20:00,56.5,28.3,27.42,North,0,0.0,0.4,34,0.00,,,0.00,WUHU216HW,2013-03-05 04:20:00,
2013-03-04 21:25:00,56.3,28.1,27.42,North,0,0.0,0.0,34,0.00,,,0.00,WUHU216HW,2013-03-05 04:25:00,
2013-03-04 21:30:00,56.0,27.8,27.42,North,0,0.0,0.0,34,0.00,,,0.00,WUHU216HW,2013-03-05 04:30:00,
2013-03-04 21:35:00,55.8,27.6,27.42,North,0,0.0,0.0,34,0.00,,,0.00,WUHU216HW,2013-03-05 04:35:00,
2013-03-04 21:40:00,55.4,28.7,27.42,North,0,0.0,0.0,36,0.00,,,0.00,WUHU216HW,2013-03-05 04:40:00,
2013-03-04 21:45:00,55.3,28.5,27.43,NNE,23,0.0,0.0,36,0.00,,,0.00,WUHU216HW,2013-03-05 04:45:00,
2013-03-04 21:50:00,55.1,28.4,27.42,NNE,23,0.0,0.0,36,0.00,,,0.00,WUHU216HW,2013-03-05 04:50:00,
2013-03-04 21:55:00,54.7,28.8,27.43,NNE,23,0.0,0.0,37,0.00,,,0.00,WUHU216HW,2013-03-05 04:55:00,
2013-03-04 22:00:00,54.5,28.6,27.43,NNE,23,0.0,0.0,37,0.00,,,0.00,WUHU216HW,2013-03-05 05:00:00,
2013-03-04 22:05:00,54.4,28.4,27.43,NNE,23,0.0,0.0,37,0.00,,,0.00,WUHU216HW,2013-03-05 05:05:00,
2013-03-04 22:10:00,54.5,30.0,27.43,NNE,23,0.0,0.0,39,0.00,,,0.00,WUHU216HW,2013-03-05 05:10:00,
2013-03-04 22:15:00,54.9,30.3,27.43,ESE,113,1.3,1.8,39,0.00,,,0.00,WUHU216HW,2013-03-05 05:15:00,
2013-03-04 22:25:00,55.1,30.5,27.43,ESE,113,0.2,0.9,39,0.00,,,0.00,WUHU216HW,2013-03-05 05:25:00,
2013-03-04 22:30:00,54.9,30.3,27.43,ESE,113,0.2,0.7,39,0.00,,,0.00,WUHU216HW,2013-03-05 05:30:00,
2013-03-04 22:35:00,54.9,31.1,27.43,ESE,113,1.3,1.3,40,0.00,,,0.00,WUHU216HW,2013-03-05 05:35:00,
2013-03-04 22:40:00,54.7,30.9,27.44,ESE,113,0.9,1.8,40,0.00,,,0.00,WUHU216HW,2013-03-05 05:40:00,
2013-03-04 22:45:00,54.4,29.9,27.43,ESE,113,0.0,1.8,39,0.00,,,0.00,WUHU216HW,2013-03-05 05:45:00,
2013-03-04 22:50:00,54.2,29.7,27.44,ESE,113,0.2,0.9,39,0.00,,,0.00,WUHU216HW,2013-03-05 05:50:00,
2013-03-04 22:55:00,54.0,30.3,27.44,ESE,113,0.0,0.4,40,0.00,,,0.00,WUHU216HW,2013-03-05 05:55:00,
2013-03-04 23:00:00,54.0,30.3,27.44,ESE,113,0.0,0.4,40,0.00,,,0.00,WUHU216HW,2013-03-05 06:00:00,
2013-03-04 23:05:00,53.8,30.1,27.44,ESE,113,0.0,0.2,40,0.00,,,0.00,WUHU216HW,2013-03-05 06:05:00,
2013-03-04 23:10:00,53.8,30.1,27.44,East,90,1.1,1.1,40,0.00,,,0.00,WUHU216HW,2013-03-05 06:10:00,
2013-03-04 23:15:00,53.6,29.9,27.44,SE,135,0.4,1.1,40,0.00,,,0.00,WUHU216HW,2013-03-05 06:15:00,
2013-03-04 23:20:00,53.3,30.2,27.44,SE,135,0.2,1.1,41,0.00,,,0.00,WUHU216HW,2013-03-05 06:20:00,
2013-03-04 23:25:00,53.1,30.0,27.43,SE,135,0.0,0.9,41,0.00,,,0.00,WUHU216HW,2013-03-05 06:25:00,
2013-03-04 23:30:00,52.9,29.8,27.43,ESE,113,0.4,0.7,41,0.00,,,0.00,WUHU216HW,2013-03-05 06:30:00,
2013-03-04 23:35:00,52.9,29.8,27.43,ESE,113,0.7,1.1,41,0.00,,,0.00,WUHU216HW,2013-03-05 06:35:00,
2013-03-04 23:40:00,52.9,29.8,27.43,ESE,113,0.2,1.1,41,0.00,,,0.00,WUHU216HW,2013-03-05 06:40:00,
2013-03-04 23:45:00,52.9,29.8,27.43,East,90,0.4,1.1,41,0.00,,,0.00,WUHU216HW,2013-03-05 06:45:00,
2013-03-04 23:50:00,52.7,29.6,27.43,SE,135,2.5,2.5,41,0.00,,,0.00,WUHU216HW,2013-03-05 06:50:00,
2013-03-04 23:55:00,52.6,30.6,27.43,ESE,113,0.4,2.5,43,0.00,,,0.00,WUHU216HW,2013-03-05 06:55:00,